Wetbulb
37.37 35.20 32.27 35.07 37.48 38.81 39.51 38.44 37.67 41.25 45.98 44.23 43.31 43.54 45.31 47.49 46.31 45.02 45.54 46.37 47.66 50.69 52.09 51.75 53.51 56.32 60.71 63.74 65.41 66.57 66.56 65.96 66.58 65.66 65.21 65.03 64.89 66.06 66.71 67.17 67.63 67.54 67.52 67.29
36.17 33.13 38.13 40.65 39.89 40.08 40.29 37.98 37.30 42.35 44.90 42.58 41.81 41.56 44.92 45.81 45.97 46.44 46.50 47.00 47.83 48.75 49.69 50.34 51.12 51.38 55.47 62.91 64.67 64.95 66.28 65.17 66.26 66.97 66.21 64.91 64.69 65.52 66.68 67.00 66.63 67.58 67.04 66.87
32.80 37.31 41.92 41.13 39.52 38.75 38.29 36.56 37.02 38.42 42.74 43.94 41.79 39.19 42.11 44.63 46.35 47.10 47.38 47.49 48.36 48.98 48.52 48.83 49.23 50.44 50.88 57.99 62.27 64.09 64.94 64.85 65.08 65.73 65.78 64.15 64.26 64.27 64.50 64.82 61.81 61.50 62.35 61.65
35.53 40.35 40.52 38.98 37.79 38.49 33.92 40.75 40.44 40.46 38.10 32.81 40.90 30.66 37.73 41.43 41.93 44.23 45.01 44.85 46.54 47.55 48.80 49.29 49.09 49.03 49.54 52.79 57.39 58.35 62.18 64.14 63.70 65.16 63.93 62.97 62.56 62.18 60.89 64.21 60.08 59.07 57.80 56.58
35.66 37.72 38.15 38.24 39.32 41.31 37.32 42.37 40.65 41.06 37.51 36.46 35.64 31.18 34.52 39.29 38.26 41.19 42.41 43.90 45.28 46.50 47.79 48.97 49.25 50.74 50.32 52.47 53.14 54.21 55.69 57.14 57.08 58.91 62.10 61.76 57.15 55.51 54.93 55.28 55.53 54.30 54.14 54.20
37.79 42.55 40.15 39.80 42.40 42.04 43.32 40.91 40.30 38.81 34.15 24.63 33.03 30.30 29.58 33.92 40.05 40.11 41.78 43.66 45.27 46.76 47.87 48.59 50.21 50.14 50.64 52.01 52.58 52.41 52.80 52.12 54.74 53.77 54.49 54.23 51.68 50.47 50.03 50.20 50.54 51.95 52.49 52.11
34.75 35.64 39.23 42.33 37.60 41.26 41.22 33.15 27.07 25.38 22.37 23.43 32.39 30.58 32.19 36.83 39.63 41.26 41.84 42.66 43.88 45.29 46.89 47.30 47.17 47.39 50.12 50.26 51.69 52.14 52.90 52.92 54.09 52.35 52.09 51.53 50.63 50.23 50.56 50.77 50.74 51.18 51.24 50.19
25.91 22.61 37.11 40.74 39.05 36.64 37.56 34.84 24.35 20.24 20.40 23.24 32.22 26.28 32.56 39.07 40.99 41.91 42.79 43.29 43.31 41.66 44.67 46.32 47.25 46.99 49.61 50.87 50.93 50.50 50.98 51.89 52.77 51.35 51.31 51.31 51.15 51.00 50.27 50.46 49.36 48.49 48.53 47.70
26.96 30.65 40.12 41.95 42.10 40.26 34.83 27.74 34.81 28.05 26.44 22.07 27.07 31.47 36.41 38.05 38.49 38.39 39.18 41.46 40.26 41.60 43.17 45.70 46.28 47.75 48.65 49.42 50.25 50.78 50.56 50.94 51.52 51.33 50.56 49.49 49.00 48.70 48.14 47.85 47.19 46.22 45.62 46.11
33.77 30.54 37.36 40.61 41.57 41.69 38.60 38.89 28.05 25.13 20.12 19.67 24.57 26.70 28.94 33.13 35.22 37.19 36.85 37.10 39.70 41.04 42.47 43.96 45.55 46.48 48.42 49.15 49.39 49.63 51.21 50.66 50.37 50.17 49.13 48.27 47.77 47.31 46.84 45.45 45.02 44.51 44.73 44.91
36.72 32.21 33.29 38.93 34.58 35.21 35.95 33.69 34.51 32.44 28.33 23.06 20.23 24.50 33.51 35.77 37.60 37.88 38.55 39.96 40.04 41.00 41.58 42.39 43.89 46.36 47.61 48.09 48.36 48.18 49.19 49.65 48.94 48.42 47.16 46.34 45.63 45.24 44.64 43.87 43.54 43.94 43.31 43.13
36.68 32.91 30.34 31.08 38.57 40.15 38.42 37.02 35.12 24.82 25.34 24.46 24.07 25.36 37.41 38.00 38.99 40.84 40.86 42.23 42.03 41.95 42.70 42.78 43.43 45.89 46.52 46.95 47.65 48.13 49.31 49.14 47.75 46.59 46.13 45.25 44.77 43.86 42.73 42.68 43.04 43.29 42.53 42.69
36.73 29.70 22.02 28.33 32.48 36.34 34.57 36.88 37.56 34.47 30.35 24.54 22.23 25.41 37.83 37.13 39.32 40.48 40.52 41.36 42.64 42.72 42.58 43.24 43.81 44.78 45.18 45.61 46.39 46.79 47.31 47.82 46.38 45.55 45.74 44.53 44.22 43.69 43.00 42.65 42.65 42.50 41.87 41.00
40.46 33.24 26.95 20.82 26.66 32.75 30.14 34.82 36.62 32.79 24.42 27.93 27.39 30.07 32.97 35.65 37.42 38.84 40.46 39.04 41.31 42.79 43.69 42.99 43.27 43.84 44.30 44.92 45.56 45.76 45.48 46.02 45.40 44.76 43.52 43.37 43.10 43.00 42.47 41.52 41.10 41.04 40.52 39.98
37.19 28.16 26.39 31.30 33.58 32.82 32.58 33.50 34.20 28.30 32.11 26.79 32.29 32.53 37.15 36.29 35.23 37.48 40.49 41.39 41.53 42.51 43.34 43.43 43.35 43.58 43.75 44.04 44.03 44.23 44.08 43.79 43.66 43.35 42.69 42.14 42.39 42.42 41.80 41.21 40.55 40.45 39.98 39.43
36.81 28.19 28.87 26.46 33.52 32.53 30.22 32.92 33.24 33.66 34.24 33.91 34.05 33.41 39.60 39.74 41.79 40.24 40.30 41.09 41.07 41.94 43.62 44.45 45.03 44.58 44.08 43.68 43.74 44.11 43.29 42.86 43.07 42.30 42.03 42.54 42.56 42.02 41.07 40.42 39.35 38.64 37.87 37.93
34.64 31.02 26.20 22.16 29.95 29.54 25.27 30.60 32.96 33.19 34.69 34.84 31.04 37.02 38.07 38.43 40.04 39.57 39.57 40.51 40.58 41.67 42.64 42.98 44.52 45.43 45.50 45.22 45.62 44.25 43.61 42.86 41.94 41.61 41.73 41.97 41.67 40.74 40.03 39.47 38.83 37.95 37.02 37.54
34.78 33.71 30.97 22.53 24.77 15.23 29.90 35.24 35.37 34.46 35.89 36.70 36.93 38.34 39.08 38.58 38.96 38.82 39.87 39.47 40.20 40.96 41.96 43.16 43.26 45.46 45.70 46.02 45.87 44.66 43.86 42.98 41.92 41.22 41.24 41.47 40.99 39.97 39.15 38.31 37.71 37.71 35.82 35.64
34.98 31.98 27.37 23.15 20.89 26.50 29.98 32.81 32.99 31.07 31.60 35.90 33.77 37.87 38.99 39.18 37.93 36.91 40.50 39.94 39.89 40.69 41.63 41.80 42.45 43.63 45.61 46.15 46.15 45.04 43.18 42.25 41.70 41.17 40.81 40.91 40.48 39.01 38.09 36.83 36.71 37.39 34.70 34.78
35.45 33.18 27.83 24.81 21.89 20.48 29.16 34.71 36.89 34.77 25.26 37.36 37.91 37.82 38.02 38.10 32.34 34.26 39.72 40.90 40.80 40.80 40.85 41.82 43.03 43.96 43.57 45.27 45.69 44.24 42.37 41.56 41.04 40.79 40.50 40.70 40.18 39.11 37.84 36.67 37.91 37.18 34.72 32.28
28.08 28.32 24.28 24.85 21.91 27.54 34.03 35.87 37.20 23.37 26.56 37.50 38.48 38.30 38.43 36.42 37.07 38.86 40.23 40.37 40.23 40.36 40.60 41.91 41.49 41.63 42.62 43.91 44.89 42.90 41.36 40.97 41.42 41.60 40.91 40.29 39.77 38.74 38.13 36.82 37.67 35.95 33.77 33.85
27.86 24.75 25.09 25.55 21.95 20.19 36.09 34.10 28.69 33.66 37.67 38.98 39.33 39.26 39.65 40.61 41.28 40.24 41.07 39.90 39.67 39.35 40.45 41.57 40.35 40.06 40.87 42.06 42.72 40.55 40.17 40.91 41.68 40.89 40.04 39.13 38.23 39.11 38.34 37.41 35.87 35.12 34.10 33.23
26.00 29.76 27.32 29.56 29.51 36.16 37.38 37.18 39.68 39.86 37.32 38.46 38.99 40.51 40.83 41.40 41.40 41.09 40.93 39.53 39.07 38.94 39.70 40.63 39.78 39.81 40.61 41.65 42.08 40.77 40.59 41.06 40.40 39.56 38.47 37.93 37.85 37.51 37.57 35.86 34.54 33.42 33.37 32.80
32.33 34.07 29.90 31.28 32.70 34.60 36.54 37.32 38.30 39.27 39.28 40.13 40.47 40.31 39.91 39.91 41.84 41.53 41.17 39.88 39.15 39.15 38.93 39.72 39.25 38.70 38.82 40.56 41.55 41.20 40.40 40.11 39.32 38.40 37.69 37.48 36.08 36.85 36.52 35.70 34.62 33.57 32.73 32.54
32.44 33.29 31.65 31.36 33.86 36.49 38.27 38.91 38.77 40.15 41.48 41.38 42.69 42.38 42.03 41.80 41.56 41.54 40.62 40.36 40.68 39.79 39.76 39.92 39.90 39.65 38.95 39.22 39.43 40.39 39.80 39.16 38.16 38.14 38.26 37.29 37.76 37.15 35.56 35.23 34.53 33.81 34.54 34.63
36.49 34.99 31.13 32.46 37.16 35.59 36.11 37.78 39.55 38.69 38.80 40.40 40.32 41.01 42.84 42.80 42.12 42.51 41.94 40.94 40.92 40.65 41.09 41.25 40.45 39.27 38.25 38.11 38.55 39.40 40.04 39.66 38.91 38.25 38.49 38.03 37.17 36.91 35.61 34.56 34.09 37.75 37.30 37.88
MSLP
1015.89 1015.61 1015.27 1014.54 1013.75 1012.96 1012.14 1012.19 1013.07 1013.28 1013.89 1015.11 1015.97 1016.07 1015.26 1014.81 1014.44 1014.35 1014.40 1014.15 1014.39 1014.40 1013.86 1013.37 1013.39 1013.76 1013.84 1014.03 1014.43 1014.86 1015.47 1015.76 1016.12 1016.60 1017.07 1017.29 1017.26 1017.21 1017.35 1017.26 1017.38 1017.52 1017.77 1018.11
1015.97 1015.11 1014.52 1014.23 1013.46 1012.89 1012.32 1012.51 1012.91 1013.24 1013.88 1014.70 1015.52 1015.56 1015.18 1014.82 1014.35 1014.10 1014.17 1013.94 1013.98 1014.25 1014.10 1013.74 1013.59 1013.63 1013.52 1014.05 1014.25 1014.59 1014.94 1015.43 1015.77 1016.08 1016.48 1016.81 1016.86 1017.05 1017.17 1017.53 1017.72 1017.73 1018.03 1018.37
1015.21 1014.85 1014.09 1013.76 1012.92 1012.73 1012.75 1012.90 1013.28 1013.83 1014.41 1014.75 1015.26 1015.74 1014.91 1014.20 1013.87 1013.60 1013.41 1013.40 1013.61 1013.63 1014.02 1013.96 1013.87 1013.53 1013.44 1013.96 1014.48 1014.40 1014.64 1015.10 1015.64 1015.87 1016.28 1016.81 1017.07 1017.35 1017.31 1017.94 1018.32 1018.32 1018.35 1018.58
1015.20 1014.73 1013.89 1013.54 1013.09 1012.83 1012.91 1012.93 1013.44 1014.07 1014.61 1015.75 1015.49 1015.22 1014.18 1013.28 1013.38 1013.37 1013.39 1013.32 1013.29 1013.36 1013.47 1013.58 1013.55 1013.43 1013.47 1013.62 1014.04 1014.21 1014.48 1014.81 1015.28 1015.78 1016.00 1016.48 1016.91 1017.34 1017.33 1017.24 1018.34 1018.81 1018.60 1018.95
1015.19 1014.70 1014.32 1013.91 1013.47 1013.22 1013.12 1012.87 1013.54 1015.00 1015.37 1016.40 1015.83 1015.44 1013.29 1012.79 1013.45 1013.06 1012.71 1012.79 1012.78 1012.78 1012.89 1013.12 1013.17 1013.05 1013.21 1013.42 1013.79 1014.29 1014.57 1015.05 1015.31 1015.46 1015.83 1016.23 1016.73 1017.17 1017.51 1017.90 1018.63 1018.76 1018.95 1019.32
1015.66 1015.51 1015.30 1014.91 1013.89 1013.32 1013.38 1013.53 1014.18 1015.27 1015.55 1015.89 1015.23 1015.09 1013.52 1012.80 1012.08 1012.11 1012.06 1012.11 1012.07 1012.24 1012.29 1012.62 1012.56 1012.84 1013.06 1013.27 1013.54 1014.03 1014.72 1015.15 1015.63 1015.69 1015.93 1016.09 1016.55 1017.27 1017.79 1018.25 1018.66 1019.09 1019.51 1019.87
1015.80 1016.10 1015.27 1014.61 1014.14 1014.20 1014.36 1014.21 1015.54 1016.35 1016.67 1016.53 1015.34 1015.12 1013.14 1011.96 1011.33 1011.38 1011.53 1011.58 1011.72 1011.91 1011.90 1012.08 1012.54 1012.81 1013.64 1014.03 1013.83 1014.09 1014.36 1015.07 1015.70 1015.99 1016.07 1016.24 1016.57 1017.06 1017.69 1018.17 1018.76 1019.32 1019.82 1020.21
1015.89 1016.36 1016.01 1015.55 1015.09 1014.99 1014.76 1014.55 1015.45 1016.42 1017.00 1016.47 1015.38 1014.61 1012.73 1011.39 1011.16 1011.04 1011.00 1011.02 1011.31 1011.63 1011.62 1011.87 1012.13 1012.72 1013.34 1013.98 1014.35 1014.81 1014.75 1015.18 1015.69 1015.85 1016.30 1016.58 1016.95 1017.29 1017.78 1018.22 1018.79 1019.33 1019.79 1020.20
1016.50 1016.87 1016.43 1015.83 1015.45 1014.97 1014.76 1014.97 1015.15 1016.02 1016.55 1016.66 1015.57 1013.97 1012.29 1011.61 1011.41 1011.34 1011.14 1011.02 1011.34 1011.64 1011.59 1011.59 1012.25 1012.59 1013.22 1013.89 1014.16 1014.42 1014.91 1015.55 1015.98 1016.38 1016.52 1016.99 1017.38 1017.83 1018.30 1018.58 1018.83 1019.41 1019.80 1020.25
1015.74 1016.72 1016.65 1015.91 1015.24 1014.83 1014.57 1014.83 1015.23 1016.28 1017.19 1017.09 1015.96 1014.46 1012.97 1012.41 1012.19 1012.01 1011.89 1011.80 1011.81 1011.76 1011.88 1012.11 1012.49 1012.85 1013.28 1013.63 1014.03 1014.48 1014.83 1015.21 1016.00 1016.41 1017.10 1017.19 1018.23 1018.36 1018.83 1019.37 1019.24 1019.71 1019.86 1020.31
1015.09 1015.93 1017.13 1016.44 1015.93 1015.38 1015.03 1015.08 1015.60 1016.45 1017.11 1017.07 1016.38 1014.55 1012.88 1012.35 1012.29 1012.38 1012.36 1012.24 1012.18 1012.20 1012.41 1012.69 1012.89 1013.24 1013.70 1014.04 1014.35 1014.60 1015.11 1015.39 1015.73 1016.37 1017.35 1017.13 1018.28 1019.21 1019.41 1019.61 1019.97 1020.18 1020.46 1020.38
1014.99 1016.23 1016.89 1016.77 1015.99 1015.67 1015.66 1015.76 1016.15 1016.82 1017.26 1017.17 1016.56 1014.90 1012.99 1012.42 1012.31 1012.22 1012.45 1012.49 1012.47 1012.46 1012.70 1013.07 1013.39 1013.58 1014.01 1014.38 1014.59 1014.84 1015.19 1015.47 1015.68 1016.05 1016.80 1016.79 1018.17 1018.48 1018.79 1019.83 1020.22 1020.63 1020.48 1020.50
1015.12 1016.02 1017.19 1017.31 1017.00 1016.32 1016.21 1016.00 1016.23 1016.69 1017.08 1017.16 1016.82 1014.97 1013.29 1012.65 1012.58 1012.50 1012.55 1012.61 1012.68 1012.83 1012.98 1013.31 1013.73 1014.11 1014.42 1014.65 1014.83 1015.07 1015.36 1015.74 1016.19 1016.94 1016.13 1017.02 1018.32 1018.51 1019.19 1019.51 1019.99 1020.19 1020.23 1020.90
1015.05 1015.75 1016.60 1016.80 1016.51 1016.25 1016.33 1015.99 1016.12 1016.79 1017.52 1016.76 1015.83 1014.61 1013.63 1013.05 1012.65 1012.51 1012.47 1012.59 1012.68 1012.94 1013.04 1013.39 1013.85 1014.19 1014.43 1014.75 1014.95 1015.23 1015.58 1015.81 1016.24 1016.98 1017.51 1017.36 1018.15 1018.83 1019.36 1019.56 1019.66 1020.03 1020.55 1021.03
1015.80 1016.54 1016.87 1016.98 1016.69 1016.57 1016.31 1016.00 1016.14 1016.65 1016.16 1016.22 1014.89 1014.51 1013.24 1012.82 1012.74 1012.67 1012.70 1012.65 1012.75 1012.87 1013.14 1013.23 1013.49 1013.82 1014.06 1014.52 1014.85 1015.15 1015.49 1015.89 1016.38 1016.99 1017.51 1017.69 1018.15 1018.76 1019.17 1019.36 1019.86 1020.47 1020.73 1020.97
1016.26 1017.15 1017.59 1017.67 1017.05 1016.83 1016.60 1016.14 1015.98 1015.84 1015.59 1015.46 1014.59 1013.82 1012.86 1012.64 1012.35 1012.60 1012.73 1012.64 1012.72 1012.54 1012.61 1012.64 1012.72 1012.94 1013.29 1013.74 1014.31 1014.73 1015.25 1015.81 1016.23 1016.84 1017.26 1017.66 1018.25 1018.75 1018.96 1019.43 1020.09 1020.37 1020.76 1021.01
1016.52 1017.30 1018.11 1018.18 1017.42 1017.05 1016.45 1014.99 1014.81 1014.80 1014.55 1014.40 1014.19 1012.84 1012.81 1012.84 1012.73 1012.58 1012.63 1012.71 1012.83 1012.82 1012.57 1012.44 1012.45 1012.46 1012.48 1012.85 1013.44 1014.20 1014.65 1015.35 1016.07 1016.67 1017.25 1017.81 1018.18 1018.51 1018.96 1019.48 1019.99 1020.54 1020.80 1020.87
1016.10 1016.83 1017.50 1018.01 1017.82 1017.12 1014.94 1014.16 1013.94 1013.98 1013.77 1013.52 1013.34 1012.94 1012.58 1012.65 1012.65 1012.74 1012.85 1012.88 1012.85 1012.79 1012.51 1012.19 1011.85 1011.58 1011.80 1012.08 1012.84 1013.65 1014.40 1015.15 1015.89 1016.50 1017.04 1017.48 1017.90 1018.49 1019.05 1019.58 1020.03 1020.28 1020.61 1020.77
1015.80 1016.68 1017.71 1018.39 1018.41 1016.78 1014.94 1014.38 1013.95 1013.78 1013.56 1013.19 1012.80 1012.81 1012.76 1012.86 1012.80 1012.85 1012.90 1013.00 1013.07 1012.94 1012.59 1012.11 1011.46 1011.07 1011.17 1011.65 1012.20 1013.02 1014.07 1014.83 1015.59 1016.13 1016.63 1017.18 1017.69 1018.39 1019.07 1019.56 1019.94 1020.26 1020.55 1020.73
1016.41 1016.86 1018.04 1018.72 1018.48 1017.15 1015.36 1014.48 1014.08 1014.00 1013.71 1013.07 1012.80 1012.84 1012.90 1012.95 1013.50 1013.30 1012.96 1012.97 1012.94 1012.83 1012.62 1012.27 1011.67 1010.96 1010.92 1011.19 1011.75 1012.63 1013.65 1014.44 1015.16 1015.73 1016.29 1016.83 1017.51 1018.16 1018.86 1019.30 1019.67 1020.14 1020.53 1020.85
1017.21 1017.69 1018.40 1018.54 1018.17 1016.82 1015.26 1014.59 1014.27 1014.42 1014.49 1013.26 1012.97 1012.96 1013.02 1013.36 1013.43 1013.01 1012.94 1013.00 1013.02 1012.90 1012.57 1012.23 1011.87 1011.33 1010.83 1010.81 1011.42 1012.50 1013.48 1014.14 1014.70 1015.49 1016.10 1016.78 1017.22 1017.91 1018.48 1019.04 1019.47 1020.04 1020.52 1020.81
1017.16 1017.67 1017.94 1018.02 1017.55 1016.47 1014.98 1014.62 1014.48 1014.10 1013.51 1013.26 1013.04 1012.91 1012.93 1012.88 1012.83 1012.72 1012.70 1012.78 1012.85 1012.91 1012.71 1012.39 1012.15 1011.91 1011.53 1011.53 1011.69 1012.62 1013.51 1014.06 1014.71 1015.41 1016.07 1016.70 1017.05 1017.79 1018.39 1018.85 1019.36 1019.85 1020.29 1020.57
1016.90 1016.75 1017.01 1017.00 1016.23 1015.36 1014.89 1014.39 1014.06 1013.91 1013.75 1013.26 1013.10 1012.71 1012.62 1012.60 1012.52 1012.41 1012.42 1012.52 1012.63 1012.75 1012.74 1012.65 1012.59 1012.66 1012.61 1012.52 1012.67 1013.41 1013.90 1014.22 1014.71 1015.42 1016.16 1016.56 1017.08 1017.72 1018.12 1018.65 1019.14 1019.66 1019.96 1020.18
1016.93 1016.60 1016.74 1016.69 1015.87 1015.81 1015.39 1014.79 1014.42 1014.17 1014.10 1013.55 1012.96 1012.67 1012.60 1012.49 1012.18 1012.20 1012.23 1012.39 1012.61 1012.67 1012.77 1012.81 1012.86 1012.98 1013.19 1013.28 1013.42 1013.68 1014.08 1014.37 1014.89 1015.54 1016.09 1016.52 1017.13 1017.68 1018.01 1018.38 1018.88 1019.24 1019.50 1019.72
1017.54 1017.18 1017.22 1016.88 1016.43 1015.95 1015.39 1015.04 1014.97 1014.45 1014.03 1013.62 1013.23 1012.83 1012.54 1012.32 1011.97 1011.89 1011.96 1012.11 1012.27 1012.48 1012.71 1012.90 1012.97 1013.17 1013.38 1013.52 1013.73 1014.02 1014.35 1014.67 1015.12 1015.50 1015.88 1016.41 1016.95 1017.44 1017.82 1018.08 1018.45 1018.76 1018.82 1018.96
1017.54 1017.67 1017.84 1017.60 1017.37 1017.44 1016.42 1015.83 1015.23 1014.75 1014.47 1014.26 1013.87 1012.98 1012.19 1011.85 1011.65 1011.57 1011.76 1012.10 1012.34 1012.62 1012.65 1012.69 1012.91 1013.19 1013.53 1013.67 1014.01 1014.15 1014.38 1014.71 1015.07 1015.55 1015.92 1016.26 1016.71 1017.05 1017.38 1017.81 1018.12 1018.22 1018.29 1018.44
Wind_Speed
3 3 7 8 5 10 7 14 16 5 12 11 10 6 8 6 4 5 5 5 4 6 6 6 7 7 5 3 10 12 10 8 7 4 4 2 4 4 3 3 5 7 5 5
4 1 4 5 11 9 13 10 8 6 15 9 8 7 11 8 6 8 10 9 8 5 6 6 7 5 5 5 8 10 12 7 4 6 3 3 3 2 3 3 4 5 7 6
3 4 4 8 5 7 2 8 6 9 6 6 11 8 16 8 8 8 8 7 8 9 10 7 8 9 7 7 8 7 7 7 5 4 5 3 3 2 2 4 3 2 7 7
4 5 6 6 4 5 6 10 11 7 7 2 5 3 12 14 11 8 10 9 9 9 8 8 8 8 8 8 7 6 7 7 6 8 4 6 4 4 2 4 4 1 5 6
7 9 8 9 2 7 2 15 17 11 5 7 8 2 7 10 9 11 11 11 10 10 8 10 11 12 8 9 8 7 7 7 5 6 6 5 4 4 3 4 6 5 5 6
8 4 4 2 4 6 5 6 9 4 2 3 5 5 6 6 17 7 5 9 10 10 10 9 12 8 8 7 8 8 8 6 5 4 6 8 9 7 5 4 4 4 3 3
1 4 4 1 4 9 3 4 3 4 4 4 3 4 8 3 5 8 8 8 8 8 9 8 9 9 6 4 5 7 9 7 6 6 5 6 7 7 8 6 4 5 4 2
6 7 9 8 4 5 8 2 5 5 4 4 2 6 6 6 5 5 5 7 5 2 7 7 10 9 10 9 7 4 6 7 7 7 7 6 6 5 5 5 5 4 4 4
5 3 5 3 3 3 4 4 4 5 3 5 4 5 6 3 4 3 2 3 2 4 3 7 8 11 10 9 9 9 8 6 6 5 7 6 6 6 5 6 6 4 5 3
3 5 4 5 4 2 2 3 5 5 2 3 4 3 5 5 5 4 4 3 5 3 5 4 5 7 6 7 6 7 9 11 7 7 5 7 5 6 5 4 6 5 5 3
2 4 2 2 2 2 5 3 2 2 4 4 1 6 6 9 8 8 5 4 4 6 3 2 3 4 5 5 6 7 8 10 10 10 8 9 7 5 5 5 4 4 4 4
2 5 3 1 2 1 0 1 2 5 4 1 4 6 2 7 7 8 5 4 2 2 2 1 1 6 7 7 7 8 9 9 10 12 8 10 10 8 8 6 5 4 4 4
2 1 4 3 6 3 3 4 3 2 3 3 5 6 2 4 6 6 7 7 5 5 4 3 4 5 5 5 5 6 6 6 5 2 10 11 5 6 6 6 6 5 5 4
3 2 5 7 5 4 4 5 5 5 3 4 6 5 3 5 6 6 6 3 6 7 7 6 5 6 6 6 7 6 6 7 8 7 6 7 7 6 7 6 6 6 4 4
3 2 4 2 3 3 2 3 6 6 7 6 8 10 13 6 1 2 5 7 7 7 7 8 8 8 8 7 6 6 6 7 7 7 7 6 7 7 7 6 6 5 5 4
2 3 4 5 4 4 3 6 7 7 6 8 10 12 9 8 10 5 6 5 7 6 8 9 11 11 11 10 9 8 8 8 7 7 7 6 6 7 7 7 6 6 5 3
4 3 2 4 3 4 7 7 9 5 6 6 10 16 2 6 8 5 5 4 5 7 8 8 10 11 12 12 12 12 10 8 7 7 6 7 7 7 7 6 6 6 5 3
4 5 4 4 2 0 8 0 1 7 8 8 8 10 6 3 1 1 4 4 6 7 7 8 6 8 8 9 12 9 10 11 9 8 7 7 7 7 6 6 6 5 3 5
2 3 1 2 2 7 2 2 1 2 5 4 2 3 4 2 1 3 3 2 4 5 7 8 6 5 7 11 13 13 11 11 10 9 8 8 7 7 7 6 6 4 4 4
1 5 5 2 1 4 3 3 1 2 5 4 4 4 4 4 5 5 5 4 6 7 6 7 9 5 6 9 12 14 12 11 10 8 7 7 7 8 7 7 5 3 3 3
1 1 4 2 2 7 5 2 2 1 6 3 0 2 3 3 6 5 4 5 4 4 7 7 6 4 3 7 12 12 11 11 8 7 7 7 7 7 7 6 4 4 3 4
5 4 4 2 2 6 4 2 1 5 4 4 4 3 4 5 6 6 5 3 4 5 5 5 5 6 6 6 9 9 8 6 7 7 7 7 7 5 5 7 5 5 5 5
0 6 4 7 6 4 4 6 3 3 7 6 5 8 7 7 6 6 4 3 2 2 2 2 4 5 6 6 6 7 5 7 8 7 7 7 7 6 6 6 5 4 5 5
5 3 1 4 2 4 3 3 4 5 6 9 5 6 6 8 7 7 5 5 4 3 2 2 4 5 4 4 4 5 6 6 7 7 6 6 6 5 5 4 4 5 5 5
4 4 4 5 5 9 5 9 6 9 12 13 15 7 8 9 8 7 6 7 6 5 3 3 3 4 3 3 4 4 5 6 5 5 6 6 6 7 5 5 6 6 6 8
1 1 1 3 4 5 10 6 7 7 6 9 10 14 10 7 8 6 5 3 4 4 2 4 6 5 4 4 3 4 5 5 5 4 4 5 5 5 5 5 4 12 11 14
Wind_Direction
274 118 185 216 271 292 110 152 175 131 159 153 196 239 251 213 191 190 197 252 205 231 212 177 155 180 175 190 170 181 179 198 182 160 179 188 197 185 185 216 199 177 173 169
202 113 174 197 240 252 154 143 155 137 154 152 169 262 267 219 230 202 207 221 234 187 195 197 182 180 168 163 172 170 184 187 193 172 161 188 182 231 186 130 77 84 97 74
101 88 224 187 211 180 117 165 138 157 109 344 161 215 244 235 216 224 223 201 214 222 188 203 197 193 176 169 199 187 179 174 188 163 123 78 85 71 86 97 88 79 92 80
66 36 113 120 98 124 159 148 115 151 133 158 234 222 228 224 214 213 229 219 215 223 196 199 197 192 188 184 158 158 149 155 155 164 158 163 185 172 221 139 120 110 81 81
58 36 55 77 96 212 160 149 140 192 144 151 190 153 257 176 219 223 217 216 219 220 214 196 198 190 192 159 155 146 130 132 147 134 168 145 144 131 125 112 136 104 82 81
51 25 42 258 285 87 66 89 127 131 149 57 204 136 284 175 206 223 225 217 211 213 219 204 198 191 181 163 149 144 132 124 161 156 164 148 141 139 127 126 119 117 107 100
166 130 291 10 61 81 74 66 88 30 29 193 233 122 247 294 166 195 207 215 231 239 221 197 176 149 137 163 154 153 150 157 177 154 125 134 140 144 143 142 142 138 135 122
54 3 2 342 19 99 219 73 134 152 165 233 16 198 246 236 160 128 124 136 137 159 216 215 178 162 160 163 151 148 143 150 167 139 130 114 111 113 112 121 120 115 121 133
110 24 308 26 321 8 315 63 191 106 47 72 240 290 324 123 129 120 149 100 324 288 2 196 182 171 164 165 173 160 146 138 136 142 120 109 112 113 123 120 120 126 127 134
132 97 337 341 334 43 92 248 39 11 101 167 272 253 230 125 114 116 61 18 318 352 75 57 170 165 168 163 158 156 155 148 143 128 125 112 94 102 103 108 110 119 114 119
352 96 304 13 348 34 14 29 13 127 136 153 178 276 229 168 148 123 92 54 29 12 51 115 117 144 154 146 159 150 152 149 146 142 143 115 116 115 111 91 97 115 127 116
21 112 126 175 216 204 230 277 113 118 271 13 126 275 254 136 141 129 144 160 144 106 100 43 155 159 156 163 163 166 163 164 161 152 147 138 151 149 131 144 132 138 118 104
341 86 77 21 358 312 217 223 217 111 60 221 129 261 237 138 133 161 178 202 203 183 172 157 137 156 173 175 160 155 154 151 135 182 142 142 136 134 147 141 145 136 118 135
52 86 139 172 205 153 200 207 199 139 119 223 211 259 240 212 202 233 245 184 204 205 191 183 180 186 187 185 175 163 154 151 147 138 146 140 147 154 159 151 128 114 126 144
46 49 69 308 310 81 262 234 210 182 215 171 242 229 251 238 214 293 248 233 224 196 201 196 193 194 188 190 188 169 162 148 147 148 159 164 158 154 149 132 133 141 132 137
26 2 59 321 271 218 273 271 262 253 253 243 253 260 246 286 296 281 267 259 242 227 212 214 204 191 190 190 185 174 168 167 159 162 170 159 156 154 147 139 143 134 141 151
120 125 75 287 330 11 310 240 220 223 238 215 235 255 273 268 268 272 294 297 262 257 262 243 215 207 197 190 181 186 175 158 160 162 166 165 156 150 149 143 142 152 158 152
151 157 161 224 49 341 236 68 135 212 253 247 264 265 256 245 265 26 338 309 320 319 304 288 256 215 204 178 179 165 163 168 168 168 172 169 158 154 151 151 159 146 149 172
163 134 141 137 187 281 330 320 89 102 285 322 255 48 45 11 310 329 24 342 282 299 299 285 252 229 190 180 175 165 165 164 167 177 175 169 159 154 155 158 164 149 168 176
48 98 117 65 107 268 277 270 291 64 290 316 64 37 24 29 358 265 292 314 313 311 299 305 301 255 205 187 168 161 165 165 178 172 169 161 158 158 163 160 149 143 164 175
40 13 157 212 243 284 272 222 267 9 250 267 208 284 281 226 207 242 272 299 297 297 311 313 338 342 285 161 155 155 157 176 166 152 152 157 155 158 161 155 138 152 162 152
165 145 204 128 172 283 204 314 185 230 283 311 299 264 273 259 270 266 245 266 305 319 335 13 42 26 29 64 120 129 152 147 144 146 147 156 148 153 152 153 148 154 170 175
272 180 186 172 212 245 240 223 263 254 257 272 270 261 250 266 262 277 238 208 233 284 337 48 79 56 30 54 108 130 159 144 137 138 154 151 144 154 153 151 153 156 180 184
350 15 144 23 289 11 33 9 17 9 333 317 301 291 283 263 255 258 216 192 189 198 192 140 105 96 82 68 84 129 142 132 136 146 150 145 146 152 148 148 170 184 186 192
227 16 319 273 324 332 321 330 303 325 326 333 321 300 278 274 266 238 214 201 187 178 168 152 145 138 134 101 94 125 146 144 153 159 161 161 171 173 172 185 192 199 205 199
282 83 61 277 327 302 289 298 316 352 327 323 321 311 298 258 247 232 212 203 184 195 173 150 146 136 159 140 154 162 164 165 161 174 179 178 177 177 180 185 207 223 220 218